Theta_e
314 315 314 313 314 314 313 314 313 314 315 316 317 315 314 314 314 315 316 317 318 317 318 319 319 324 331 334 335 335 335 337 337 338 339 338 338 338 338 339 339 339 338 339 341 342 342 342 342 341 341 340 340 339 340 341 341 341 341 341 340 339 338 336 335 336 337 338 338 339 338 338 338 338 338 337 336 336 336 337 335 333 332 331 331 332
315 315 315 313 314 314 314 314 315 315 314 315 316 315 314 314 314 316 317 317 317 319 319 319 324 331 335 335 336 337 337 337 338 338 337 337 336 336 337 337 337 338 338 339 340 341 341 341 341 341 340 341 340 341 341 341 341 341 341 340 339 339 338 336 335 336 337 338 338 338 338 338 338 338 337 336 335 335 335 335 334 333 332 333 333 333
315 315 315 314 315 314 314 314 314 315 315 316 316 315 315 315 314 316 317 317 318 319 318 322 330 333 335 334 334 336 336 336 337 337 337 337 336 336 336 336 336 336 337 338 339 339 340 340 340 339 340 340 339 340 340 340 340 340 339 339 338 337 337 336 335 335 335 337 338 338 338 337 337 336 335 335 334 334 334 333 332 332 333 333 334 334
315 314 315 315 314 314 313 313 314 314 315 317 317 315 315 315 315 314 316 318 318 319 322 327 332 334 334 333 334 334 335 335 335 335 335 335 336 336 335 335 334 334 335 335 335 336 337 338 339 338 338 338 338 339 339 338 338 338 338 338 337 336 335 335 335 334 333 334 336 337 337 336 335 335 335 335 334 334 334 333 332 332 333 333 333 334
314 314 314 315 313 313 313 313 314 314 315 317 317 316 315 316 316 316 317 318 316 322 328 330 334 334 334 334 333 332 333 334 334 333 333 333 333 333 333 333 333 333 332 332 333 333 335 336 337 336 336 337 337 337 337 337 337 336 336 336 336 336 335 335 334 334 333 334 336 337 337 336 336 336 335 335 335 334 334 334 333 333 333 334 334 333
314 314 314 314 313 313 312 312 314 314 315 317 318 317 316 316 318 317 317 318 315 320 327 331 335 335 332 334 333 331 332 332 332 332 331 331 331 331 331 331 331 331 331 331 331 331 332 333 334 334 334 335 335 335 335 335 335 335 335 335 335 335 335 335 333 333 334 335 336 337 337 337 336 336 336 335 335 335 334 334 334 333 333 333 333 334
314 314 314 314 314 313 312 312 313 315 316 316 318 317 318 317 318 318 317 317 314 318 326 329 334 335 333 334 334 331 330 330 330 330 330 330 330 329 330 330 330 330 329 329 329 329 330 331 332 332 333 333 333 333 334 333 333 334 334 334 334 333 334 334 332 332 334 335 336 337 337 336 336 336 336 336 336 336 335 335 334 334 333 333 333 334
314 315 314 313 314 313 312 312 313 315 316 316 318 318 319 318 319 318 317 317 316 320 326 325 330 335 336 334 333 331 330 330 329 329 328 328 329 329 329 329 329 328 328 328 328 328 328 329 330 330 330 331 331 331 332 332 331 332 332 332 332 332 333 334 333 333 334 335 335 335 335 335 335 336 336 336 336 336 336 336 335 335 335 334 334 334
314 314 314 313 313 313 312 313 314 315 315 316 318 320 320 319 320 319 316 318 319 319 321 324 328 332 333 334 332 331 330 330 329 328 328 327 328 328 328 328 327 327 327 327 327 327 327 327 327 327 328 329 329 329 329 329 328 329 330 330 331 331 332 333 333 333 332 332 332 333 333 334 334 334 335 335 335 335 334 335 335 334 334 334 334 333
314 314 315 314 313 313 313 314 315 315 315 316 318 319 319 319 319 318 317 318 320 318 317 321 324 327 332 335 333 332 331 331 329 327 327 327 327 328 328 327 326 326 326 326 326 326 325 325 325 326 326 327 326 326 325 324 325 326 326 327 328 329 330 331 331 332 331 331 331 332 332 332 333 333 333 333 332 332 332 333 333 333 334 334 333 333
314 314 315 315 315 314 314 315 315 314 316 317 317 317 317 319 318 318 321 318 318 318 317 319 319 325 336 336 333 333 332 330 328 327 326 326 327 327 327 326 325 324 324 324 324 324 323 323 323 324 325 324 323 322 321 321 322 323 323 323 324 325 327 328 329 329 330 330 330 330 330 330 330 331 331 331 331 331 331 332 333 334 334 334 333 332
315 314 315 316 316 315 314 314 315 315 316 317 317 316 316 317 316 315 318 318 319 320 319 318 314 322 337 337 332 332 331 328 327 326 326 326 326 326 326 325 324 323 323 323 322 322 322 321 321 322 322 321 321 320 320 321 320 321 321 321 322 322 323 324 325 325 326 327 327 327 327 328 328 329 329 330 330 330 331 332 333 333 333 332 332 332
315 315 315 316 317 316 314 313 314 314 315 317 316 317 316 315 314 314 316 318 319 322 320 318 317 327 337 336 331 331 328 326 326 326 325 326 325 325 324 323 323 322 322 321 321 321 320 320 320 321 320 320 320 320 320 320 320 320 320 321 321 321 321 321 321 322 322 323 324 324 324 324 325 326 327 327 328 328 329 331 332 331 331 331 331 331
316 316 315 315 316 316 315 313 313 313 314 315 315 317 317 315 314 314 316 318 319 320 318 315 323 333 336 334 330 329 327 325 325 325 325 325 325 324 323 322 321 321 320 320 320 319 319 319 319 319 319 319 319 318 318 319 319 319 320 320 320 320 320 320 320 320 320 320 321 321 321 320 321 322 323 324 325 326 327 329 330 330 330 329 329 330
317 317 316 315 315 316 315 313 313 314 315 316 316 317 317 317 319 317 316 318 319 318 317 320 329 333 335 333 327 326 325 325 325 324 324 324 323 323 321 320 320 319 319 318 318 318 318 318 318 317 318 318 318 318 318 318 318 319 319 319 319 319 319 319 319 319 319 319 320 320 319 319 319 319 320 320 321 322 324 326 328 329 329 328 328 328
315 316 316 316 316 315 316 315 316 316 316 317 316 315 315 318 326 324 319 320 320 319 324 330 332 331 331 330 325 324 325 324 324 324 323 323 322 321 320 319 318 318 318 317 317 317 317 317 317 316 317 317 317 318 318 318 318 318 318 318 318 318 319 318 318 318 318 318 319 319 318 318 318 318 318 317 317 318 319 321 323 324 325 325 326 326
315 317 316 316 316 316 316 316 317 317 317 318 314 313 314 317 326 325 319 321 322 322 328 331 332 330 330 329 326 324 324 323 323 323 322 321 320 319 319 318 317 317 316 316 316 316 317 316 316 316 316 317 317 317 317 317 317 317 318 318 317 317 318 318 317 317 317 317 318 318 318 318 317 317 317 317 316 316 317 318 319 319 320 321 322 323
318 318 317 315 316 316 317 317 316 317 317 316 313 313 315 315 322 325 320 319 319 321 328 331 332 332 331 331 327 324 324 323 322 322 321 320 319 318 318 317 316 316 316 316 316 316 316 316 316 316 316 317 317 317 317 316 316 317 317 317 317 317 317 317 316 316 317 317 316 316 316 316 316 316 316 316 315 315 315 316 317 317 318 319 320 320
319 318 316 314 316 316 316 317 317 316 315 315 314 315 318 317 317 319 320 319 317 321 331 333 332 331 331 330 327 325 325 324 322 321 320 319 319 318 317 316 316 316 315 315 316 316 316 316 316 316 316 316 316 316 316 316 316 316 317 316 316 316 316 316 316 316 316 316 315 315 315 315 315 315 315 314 314 314 314 314 314 315 315 316 317 318
321 320 318 315 315 317 316 316 316 316 315 315 315 314 318 319 319 318 319 321 320 323 334 335 331 332 331 328 326 325 324 324 322 320 320 319 318 317 316 316 315 315 315 315 315 316 316 316 316 316 316 315 315 315 315 315 315 315 315 315 315 315 315 315 315 315 314 314 314 313 313 314 313 313 313 313 313 313 313 313 313 313 313 313 314 315
319 321 323 320 315 316 316 315 315 315 315 315 315 315 315 315 318 320 318 318 320 324 333 334 332 333 329 325 325 325 324 323 322 320 319 318 317 316 316 315 315 315 315 315 315 316 316 316 315 315 315 314 314 314 313 313 314 313 313 314 314 314 314 314 314 313 313 313 312 312 312 312 312 312 311 311 311 311 312 312 312 312 312 312 313 313
319 320 323 322 316 314 315 315 314 315 316 315 316 317 317 316 317 318 317 316 317 320 327 332 335 333 326 323 325 325 323 322 321 320 319 317 316 316 315 314 314 314 315 315 315 315 315 315 314 314 314 313 313 313 312 312 313 313 313 313 313 313 313 313 313 313 313 312 312 311 311 311 311 311 311 311 311 311 311 311 311 311 312 312 312 312
326 322 319 319 317 315 316 315 315 316 315 315 316 316 318 319 317 317 321 322 315 316 326 333 336 331 323 321 325 325 322 321 320 318 317 316 315 315 314 314 314 314 314 315 314 314 314 314 314 313 313 313 312 312 312 312 312 312 312 312 312 312 312 312 312 312 312 311 311 310 310 310 310 310 310 310 310 310 310 310 310 311 311 312 312 312
324 322 318 318 317 316 317 316 315 316 315 316 317 317 317 319 318 319 325 325 319 319 328 335 336 329 323 322 324 322 320 319 318 317 316 315 314 314 314 313 314 314 314 314 314 314 314 313 313 313 312 312 312 312 312 311 311 311 312 312 312 312 312 312 311 311 311 311 310 310 310 309 309 309 309 309 309 309 308 309 309 310 310 311 311 312
319 322 323 320 316 315 317 317 316 316 316 316 318 317 317 318 318 318 319 319 320 321 326 335 334 326 323 323 322 320 319 318 317 316 315 315 314 314 314 313 313 314 314 314 313 313 313 313 312 312 312 312 312 311 311 311 311 311 311 311 311 311 311 311 311 311 310 310 309 309 309 309 309 309 309 308 308 308 308 308 308 308 309 309 310 311
322 324 326 327 325 324 321 319 319 318 315 315 317 317 318 317 317 322 322 318 318 322 329 333 329 324 323 323 320 319 318 317 316 316 315 314 314 314 313 313 313 313 313 313 313 312 312 312 311 311 311 311 311 310 310 310 310 310 310 310 310 310 310 310 310 310 309 308 308 308 308 308 308 308 308 307 307 307 306 306 306 306 306 307 308 309
323 323 323 326 329 329 326 321 318 319 316 315 316 316 317 318 318 324 328 323 321 329 335 329 324 324 324 321 320 318 317 316 316 315 314 314 314 313 313 313 313 313 313 312 312 312 311 311 311 311 310 310 310 310 310 309 310 310 310 310 309 309 309 309 309 308 308 307 307 307 307 307 307 307 306 306 306 305 305 305 305 305 305 305 306 307
324 322 320 322 323 325 326 322 319 318 316 315 317 318 319 320 319 319 325 326 324 330 333 325 322 325 324 320 319 318 316 316 315 314 314 314 313 313 313 313 313 313 312 312 311 311 310 310 310 310 310 309 309 309 309 309 309 309 309 309 309 308 307 307 307 307 307 307 306 306 306 306 306 306 306 305 305 304 304 304 304 304 304 304 304 305
327 323 322 322 322 323 324 322 322 323 319 315 316 318 321 323 322 322 327 331 330 329 329 323 322 324 322 319 318 317 316 316 315 314 314 313 313 313 313 313 313 312 311 311 311 310 310 309 309 309 309 309 309 309 308 308 308 308 308 308 308 307 307 306 306 306 306 306 306 306 305 305 305 305 305 304 304 304 304 303 303 303 303 303 303 304
326 325 326 326 327 326 325 323 325 330 328 322 319 320 324 328 328 329 329 329 332 331 326 322 322 322 320 318 317 316 316 315 314 314 313 313 313 313 313 312 312 311 311 310 310 309 309 309 308 308 308 308 308 308 308 308 308 307 307 307 307 307 306 306 306 306 306 305 305 305 304 304 305 304 304 304 303 303 303 303 303 303 302 302 301 302
324 325 326 330 330 328 328 328 327 328 327 325 324 325 327 328 328 327 325 323 324 324 321 320 321 320 318 316 315 315 315 314 314 313 313 313 313 313 312 312 311 311 310 310 309 309 308 308 308 308 308 308 308 308 307 307 307 307 307 307 307 306 306 306 306 305 305 305 305 304 304 304 304 304 304 303 303 302 301 302 302 302 302 301 301 301
327 328 327 331 330 326 327 330 328 326 326 326 326 325 327 328 326 325 324 323 322 321 320 320 320 318 316 314 314 314 314 314 313 313 313 313 312 312 311 311 311 310 309 309 309 308 308 308 307 307 307 307 307 307 307 307 307 307 307 307 306 306 306 305 305 305 305 304 304 304 304 304 304 304 303 303 303 302 301 301 302 302 302 301 300 300
327 333 331 330 330 327 327 332 331 328 330 330 325 323 325 325 324 323 323 322 320 319 319 320 319 316 314 313 313 313 313 313 313 313 313 313 312 311 311 310 310 309 309 308 308 307 307 307 307 307 307 307 307 307 307 307 307 306 306 306 306 306 305 305 304 304 304 304 304 303 303 303 303 303 303 303 302 301 300 300 301 302 302 301 300 300
326 332 332 329 330 329 327 330 331 328 328 326 322 321 323 321 320 320 319 318 319 319 318 317 315 313 313 313 313 313 313 313 313 313 313 312 311 311 310 310 309 308 308 308 307 307 307 306 306 306 306 307 306 306 306 306 306 306 305 305 305 305 305 304 304 304 304 304 303 303 303 303 302 302 302 302 302 300 300 299 300 300 301 301 300 299
326 330 329 326 328 328 326 327 330 328 325 322 319 318 318 316 315 315 314 314 315 316 315 314 313 312 312 312 312 312 312 312 312 312 312 311 310 310 309 309 308 308 307 307 307 306 306 306 306 306 306 306 306 306 306 306 305 305 305 305 305 304 304 304 304 304 303 303 303 302 302 302 302 302 302 302 301 299 299 299 298 299 300 300 299 299
326 327 327 325 325 325 324 324 326 324 321 320 318 317 316 315 316 317 316 313 312 312 312 312 312 311 311 311 311 311 310 310 310 310 310 310 310 309 308 308 307 307 307 306 306 306 306 306 306 306 306 305 305 306 305 305 305 305 305 304 304 304 303 303 303 303 303 303 302 302 302 301 301 301 301 301 300 299 298 298 298 298 299 299 298 298
323 323 326 326 322 321 322 320 320 320 320 320 319 318 318 319 319 319 318 314 311 311 311 311 311 310 310 310 310 309 309 309 309 308 309 309 309 308 308 307 307 307 306 306 306 306 306 306 305 305 305 305 305 305 305 304 304 304 304 304 303 303 303 303 302 302 303 303 302 302 301 301 301 301 301 300 300 299 299 298 298 298 298 298 298 298
322 322 324 324 320 319 320 319 319 322 322 321 321 320 318 316 315 315 316 314 311 311 311 310 310 310 309 309 308 308 309 309 308 308 308 308 308 308 307 307 306 306 306 306 305 305 305 305 305 305 304 304 304 304 304 304 304 303 303 303 303 303 302 302 302 302 302 302 302 301 301 301 300 300 300 300 299 299 299 298 298 298 298 298 297 297
323 324 324 322 320 320 321 321 321 322 321 320 321 320 317 314 313 316 319 317 311 310 311 310 309 309 309 308 308 308 309 309 308 307 307 308 308 307 307 306 306 306 306 305 305 305 305 305 305 304 304 304 304 304 303 303 303 303 303 302 302 302 302 302 302 302 302 302 301 301 301 301 300 299 299 300 300 299 299 298 298 298 298 298 298 297
323 323 322 321 320 321 323 322 321 321 321 320 320 319 315 314 315 319 324 320 311 309 310 309 308 309 308 308 308 308 309 308 307 306 307 307 307 306 306 306 306 305 305 305 305 304 304 304 304 303 303 303 303 303 303 303 302 302 302 302 302 302 302 302 301 301 301 301 301 300 301 301 300 299 299 300 300 299 299 298 298 298 298 298 298 297
320 320 320 320 321 321 322 321 320 320 321 320 319 318 315 316 319 324 325 318 310 309 309 308 308 308 307 307 308 308 308 307 306 307 307 306 306 306 306 306 305 305 305 305 304 304 304 304 303 303 303 302 302 302 302 302 302 301 301 301 301 301 301 301 301 301 301 301 300 300 300 300 300 299 299 299 300 299 299 298 298 298 298 298 298 297
320 320 321 322 322 320 321 320 319 320 319 317 318 317 316 320 323 322 317 312 309 308 308 308 308 307 307 307 308 307 307 306 306 306 306 306 306 306 305 305 305 305 305 304 304 303 303 303 303 303 303 302 302 302 302 301 301 301 301 301 301 301 301 301 301 300 300 301 300 299 300 300 300 299 299 299 299 299 298 298 298 298 298 297 298 298
322 321 321 320 320 321 321 319 320 322 319 316 318 318 318 320 320 314 310 309 309 308 308 307 307 307 307 307 307 307 306 306 306 306 306 306 306 305 305 305 305 304 304 304 304 303 303 303 303 303 302 302 302 301 301 301 301 301 301 301 301 301 301 300 300 300 300 300 300 299 299 300 301 300 299 299 299 298 298 298 298 298 298 297 298 298
322 322 321 318 317 321 322 320 320 320 317 316 318 318 316 316 313 310 309 309 308 308 308 307 307 307 307 307 306 306 306 305 306 305 305 305 305 305 305 304 304 304 304 303 303 303 303 303 303 303 302 302 302 302 301 301 301 301 301 301 301 301 301 300 300 300 300 300 300 299 299 300 300 300 299 298 298 298 298 298 298 298 298 298 297 298
320 318 319 317 315 317 319 318 317 316 314 314 316 314 312 312 310 309 309 309 308 308 307 307 307 307 307 306 306 305 305 305 305 305 305 305 305 305 304 304 304 304 304 303 303 303 303 303 303 302 302 302 302 302 301 301 301 301 301 301 300 300 300 300 300 299 299 299 299 299 299 299 300 300 299 298 298 299 299 299 298 298 298 298 298 297
316 314 316 317 316 315 316 315 314 314 313 313 313 311 310 310 309 309 309 308 308 308 307 307 307 307 306 306 305 305 305 305 305 305 305 305 304 304 304 304 304 304 303 303 303 303 303 303 302 302 302 302 302 302 301 301 301 301 301 301 300 300 300 300 300 299 299 299 299 299 299 299 299 299 299 299 299 299 299 299 299 298 298 298 298 297
315 314 315 317 316 316 316 315 313 313 313 312 312 311 310 309 309 309 309 308 308 308 307 307 307 306 306 306 305 305 305 305 305 305 305 305 304 304 304 304 304 303 303 302 302 302 302 302 302 302 302 302 302 302 302 302 301 301 301 301 300 300 300 300 300 299 299 299 299 299 299 299 299 299 299 299 299 299 299 299 298 298 298 298 298 297
316 316 315 315 315 316 315 314 313 313 312 312 312 311 310 310 310 309 309 309 308 308 307 307 307 306 305 305 305 305 305 304 305 305 305 305 305 304 304 303 303 302 302 302 302 302 302 302 301 301 301 302 302 302 302 302 301 301 301 301 300 300 300 300 300 300 299 299 299 300 300 299 299 299 298 299 299 298 298 298 298 298 298 298 298 297
316 316 315 314 314 314 313 313 312 312 312 311 311 311 310 310 309 309 309 308 308 307 307 306 306 306 305 305 305 305 305 305 305 305 305 304 304 304 303 303 302 302 302 302 302 302 301 301 301 301 301 302 302 302 302 301 301 301 301 301 300 300 299 300 300 300 300 300 299 300 299 299 299 299 299 299 299 298 298 298 298 298 298 298 297 297
315 314 313 313 313 313 313 313 312 312 312 311 310 310 310 309 309 309 308 308 307 306 306 305 305 305 305 305 305 305 305 305 305 305 304 304 304 303 303 303 302 302 302 302 301 301 301 301 300 300 301 302 302 302 302 301 301 301 301 300 300 300 300 299 298 299 300 300 300 299 299 299 299 299 299 299 298 298 298 298 298 298 297 297 297 296
314 313 313 313 313 313 313 312 312 312 311 311 310 310 309 309 309 308 308 307 306 306 305 305 305 305 305 305 305 305 305 305 305 304 304 303 303 303 303 302 302 302 302 301 301 301 301 300 300 300 300 301 301 301 302 302 301 301 301 300 300 300 300 299 297 297 299 300 300 299 299 299 299 298 298 299 298 298 298 298 298 297 297 297 296 296
Wind_Speed
14 6 7 8 6 7 9 9 9 10 13 12 7 8 10 8 9 8 10 14 13 9 8 8 8 5 13 12 15 25 27 23 23 23 24 24 24 25 25 24 21 21 19 16 17 16 15 15 16 18 17 16 17 16 13 11 9 10 9 8 7 6 4 3 4 5 5 7 7 6 6 5 5 6 6 6 5 6 7 7 7 8 8 9 10 11
13 7 6 7 6 7 9 11 12 13 14 13 6 5 7 8 10 11 11 17 13 8 7 8 10 10 15 13 14 24 21 16 20 22 21 23 23 24 24 22 21 21 19 17 17 16 16 17 19 20 20 20 21 19 17 15 13 12 10 8 7 5 4 3 3 4 6 6 6 6 6 5 5 6 6 6 6 6 6 6 7 8 9 10 11 12
8 7 7 7 6 8 10 11 13 14 12 10 7 4 5 7 9 8 11 18 12 6 7 9 12 10 14 15 14 20 18 17 23 24 22 22 22 22 21 20 21 21 19 18 17 17 16 17 18 18 18 17 17 17 17 15 14 13 11 10 7 4 3 3 2 3 4 6 6 5 5 4 3 3 4 5 5 5 6 7 8 9 10 11 12 12
6 5 8 9 9 11 12 11 13 13 10 7 6 4 5 8 7 4 11 20 14 5 9 13 12 7 10 14 13 17 20 21 25 26 24 23 22 21 20 21 21 20 18 17 16 16 16 15 16 16 15 14 13 14 13 12 11 10 9 7 6 4 3 4 3 1 2 5 6 4 2 2 2 2 3 3 4 4 4 5 7 8 9 10 11 11
6 6 11 12 12 14 13 12 12 10 7 6 8 7 7 11 9 4 10 16 11 6 13 16 9 3 5 10 11 13 18 19 20 22 22 21 21 22 22 23 22 20 18 16 15 14 14 14 13 12 11 10 10 10 10 10 9 8 7 6 5 4 4 4 3 3 3 5 5 4 1 0 1 2 3 3 4 5 4 5 5 6 8 9 10 12
7 11 16 14 13 15 13 11 11 9 6 6 8 10 12 14 9 4 11 12 7 4 10 13 6 2 1 8 9 8 11 13 14 17 17 16 18 19 21 22 21 20 18 16 15 14 13 12 11 10 8 7 8 7 7 8 7 6 7 6 6 6 4 3 2 2 4 5 5 3 2 1 1 2 3 4 5 5 5 5 6 7 8 9 10 11
6 13 18 15 14 15 13 11 11 10 6 5 6 10 14 15 11 4 7 10 5 5 9 10 7 2 2 4 7 8 10 10 11 12 13 14 15 16 18 19 20 19 18 16 15 13 12 11 9 8 7 5 5 5 4 4 5 6 6 5 6 6 5 4 3 3 4 5 5 4 3 2 1 2 3 4 5 5 6 6 7 8 10 11 11 12
8 13 15 16 15 12 11 10 10 10 6 4 6 10 12 11 10 8 4 8 5 7 9 9 10 5 3 5 8 10 11 10 8 8 9 13 15 16 18 18 18 18 17 16 14 13 11 9 8 7 6 5 3 2 3 4 4 4 5 5 5 5 5 5 6 5 5 6 7 5 4 4 4 4 4 5 5 5 6 6 7 8 9 11 13 14
9 13 12 16 14 9 9 9 10 10 7 5 7 9 9 7 9 8 4 6 6 7 8 7 9 6 3 6 9 10 11 9 8 7 8 12 14 16 18 18 18 18 17 16 14 13 11 9 8 6 5 3 0 1 3 4 4 4 5 5 5 6 7 7 6 6 6 7 7 6 5 6 6 6 6 6 7 7 8 8 8 9 9 10 12 13
10 16 14 14 12 8 9 10 11 12 7 5 9 10 6 7 7 5 3 2 5 6 7 9 10 6 1 5 8 8 8 9 9 7 8 13 16 16 18 18 17 17 16 15 15 13 11 9 7 5 4 3 2 1 1 2 3 2 1 1 3 6 7 8 8 7 7 6 6 6 6 6 6 6 6 6 7 8 8 9 10 10 10 10 11 11
11 19 17 11 11 10 10 10 13 14 7 7 10 9 6 7 3 2 1 2 4 3 6 10 12 7 2 5 7 5 6 11 11 9 10 14 17 17 17 18 17 17 17 16 16 14 12 10 7 5 5 5 6 7 7 8 8 7 7 7 5 3 1 2 6 7 7 7 6 6 5 5 6 6 6 6 6 5 5 6 7 9 9 10 11 12
11 15 12 9 13 15 11 10 12 13 8 7 8 6 3 6 1 2 2 4 3 5 5 8 9 7 4 5 6 5 8 13 13 11 14 15 17 18 17 18 17 18 17 15 15 14 13 11 9 6 6 7 8 8 8 9 10 10 10 11 13 12 11 10 5 2 2 3 3 5 6 6 7 7 7 7 6 7 7 7 7 8 9 10 10 12
9 9 10 10 13 15 11 6 9 10 7 7 6 5 4 3 1 2 2 2 3 5 5 7 5 5 2 2 3 9 13 13 13 15 19 19 19 18 18 18 18 17 16 15 14 13 11 11 9 7 8 9 9 8 6 7 8 10 10 11 13 14 13 14 13 12 11 9 7 7 8 8 7 7 7 7 8 8 9 9 9 9 11 11 10 11
6 6 12 12 9 14 14 6 6 7 6 8 6 5 6 3 3 4 3 2 2 2 6 8 6 3 1 3 4 9 14 17 20 21 22 22 21 20 19 19 18 17 16 15 14 13 11 10 8 7 9 10 10 10 8 8 10 11 12 11 11 13 14 14 14 14 16 14 11 12 15 15 13 9 7 7 7 7 9 10 10 11 12 12 11 12
6 6 11 13 6 10 14 8 7 6 5 7 6 5 4 4 5 4 3 4 2 2 4 5 4 1 2 2 5 11 18 22 25 24 23 22 21 21 20 19 18 17 16 15 14 13 12 10 8 8 9 10 11 12 11 12 13 14 13 11 10 13 14 15 15 16 17 14 11 14 16 17 17 15 14 12 11 9 7 8 10 12 13 14 13 12
8 5 7 12 8 9 10 6 7 7 4 4 4 5 6 5 5 3 4 5 4 2 1 3 3 2 3 4 8 13 17 20 24 24 23 21 20 21 20 18 18 17 16 15 14 13 11 10 10 9 10 11 11 11 10 11 14 14 12 11 12 13 13 15 16 15 15 13 10 12 15 15 16 17 17 17 16 14 11 9 9 11 12 14 14 13
7 4 6 11 7 9 12 7 4 6 4 4 4 5 6 5 5 4 2 3 5 3 0 0 3 5 4 3 7 11 13 15 19 21 21 20 19 19 18 17 17 17 15 14 14 13 12 11 11 11 11 11 11 11 10 11 13 12 10 11 12 12 13 15 15 14 13 12 10 10 12 13 15 16 18 19 19 17 15 12 12 11 11 12 12 13
6 2 7 13 7 6 13 7 5 6 5 5 6 5 3 4 4 5 2 1 4 3 1 2 5 7 4 2 6 11 13 13 14 16 18 19 18 17 17 17 16 16 16 15 14 13 12 12 11 12 12 12 11 11 10 9 9 8 8 11 12 12 14 16 16 14 12 13 13 12 13 13 14 15 16 17 18 18 16 15 15 14 13 12 13 13
6 2 4 12 10 6 9 6 6 11 12 6 6 6 5 4 5 3 3 3 4 3 2 4 6 6 4 4 8 12 13 13 13 15 16 16 16 17 17 16 15 15 16 16 14 13 14 13 12 12 12 12 11 9 7 6 6 7 8 10 11 12 14 16 15 14 13 13 14 15 15 15 15 15 15 16 17 18 19 18 18 18 17 16 15 14
5 4 1 7 11 8 6 6 6 9 11 7 4 6 6 5 4 4 4 4 5 4 3 5 5 3 2 5 11 12 11 13 14 12 12 15 17 17 17 16 16 15 14 15 15 14 14 14 13 13 12 11 10 7 6 6 8 11 11 11 12 14 16 16 16 16 16 17 16 16 16 16 17 18 18 18 19 21 21 21 21 20 20 19 18 17
4 4 1 5 11 9 5 6 8 6 5 5 4 5 5 4 4 4 3 3 5 4 4 4 3 3 1 2 9 13 12 13 14 12 12 16 18 17 18 17 15 15 15 15 15 14 14 14 13 11 10 10 10 8 9 12 14 16 15 15 16 17 17 17 18 18 18 18 17 17 17 17 18 20 20 20 21 22 22 22 22 22 22 21 21 20
3 4 2 4 8 8 5 7 10 7 6 5 4 5 6 5 5 4 3 3 3 4 5 5 3 2 1 2 2 9 11 11 15 16 15 18 20 19 18 17 15 15 15 15 14 14 15 14 11 9 9 11 11 11 13 15 16 16 17 18 17 18 19 19 18 17 16 16 17 19 19 19 19 20 20 21 22 22 22 23 23 23 23 23 22 22
4 5 4 3 4 6 5 9 13 11 8 6 6 5 5 5 6 5 3 4 3 3 4 4 3 2 1 3 2 6 13 17 19 20 19 19 20 20 18 17 16 15 15 15 14 14 13 11 11 11 13 13 13 14 16 16 16 18 19 19 17 17 19 19 17 15 14 15 17 19 20 21 22 21 22 23 24 23 23 23 23 23 23 23 23 23
4 4 4 3 2 4 6 8 12 11 8 6 6 6 5 5 6 6 4 3 3 3 4 3 2 1 3 3 5 15 21 22 21 22 22 20 20 20 18 16 16 16 15 15 14 13 11 11 12 13 15 15 14 16 17 16 16 18 18 17 15 16 17 16 15 14 15 15 17 19 20 21 22 23 24 25 25 25 25 24 24 23 24 24 24 24
5 2 4 4 2 4 7 5 7 9 8 3 3 5 5 6 8 6 4 2 2 2 7 5 1 1 2 1 12 18 19 19 20 22 23 22 20 19 18 17 17 17 16 15 16 15 14 13 14 15 15 15 14 15 15 16 17 18 17 16 15 14 15 14 13 14 15 16 17 19 20 21 22 23 25 26 26 26 26 25 25 24 24 25 25 24
6 3 4 6 4 6 7 5 5 6 5 3 2 5 6 8 9 6 4 3 3 2 7 6 4 3 2 6 12 13 14 16 18 21 23 22 21 19 18 17 16 15 15 15 17 18 16 15 16 17 15 13 13 14 15 17 18 18 17 16 15 13 13 13 13 14 16 17 19 21 21 22 23 23 24 25 26 26 26 26 26 25 25 26 26 25
3 2 5 6 5 5 5 3 3 6 5 6 6 6 7 8 8 6 5 4 5 3 4 4 12 12 8 10 13 12 13 14 14 19 22 21 21 20 19 18 16 15 14 14 15 16 15 14 15 16 16 15 15 14 16 18 17 16 16 16 16 15 14 14 15 17 19 21 23 24 24 24 24 24 25 25 26 26 26 26 26 26 27 28 27 27
3 2 6 5 2 2 2 2 2 4 8 9 8 6 5 7 8 6 5 5 8 5 2 5 17 18 12 13 15 13 13 12 13 19 21 22 23 22 20 19 18 17 15 13 14 14 14 14 14 15 16 15 14 14 16 16 15 15 16 17 19 20 21 20 21 23 24 25 27 27 26 25 25 26 27 27 28 28 28 29 28 27 27 28 29 28
4 2 5 4 3 3 3 4 6 4 3 9 11 10 6 5 6 5 3 5 8 6 6 12 17 16 14 15 14 14 15 15 17 21 23 23 24 23 22 21 20 19 18 16 15 13 13 13 13 13 14 15 15 16 16 17 17 17 18 18 20 23 24 25 26 27 27 27 28 28 28 27 28 29 29 29 30 30 30 31 31 30 29 30 30 29
5 1 1 5 5 4 5 5 7 9 6 3 3 4 1 6 7 7 5 7 10 9 12 17 15 11 11 12 12 16 20 22 23 24 23 23 23 23 23 22 20 19 18 17 16 15 13 13 12 13 14 15 16 16 16 17 18 18 19 19 20 22 24 24 25 26 26 27 27 28 29 29 30 31 31 32 33 32 32 32 32 32 32 33 33 31
6 1 1 6 5 4 6 7 8 10 12 12 11 9 9 13 13 11 10 12 15 13 13 17 13 7 7 12 16 20 24 25 24 24 23 22 23 24 24 22 21 20 19 18 17 15 14 13 13 13 14 15 16 15 15 16 17 17 18 18 18 20 22 22 22 23 24 25 25 27 29 30 31 31 32 33 34 34 33 32 32 32 33 35 36 34
6 1 2 5 5 3 5 5 5 8 12 13 12 12 9 8 9 8 6 6 11 16 16 14 9 5 7 14 18 20 23 23 22 23 23 21 23 25 24 24 23 21 20 19 17 15 14 13 13 14 14 15 15 15 15 15 15 16 16 17 17 18 20 20 21 22 22 23 24 25 28 29 29 30 30 31 33 34 34 32 31 31 33 35 37 35
5 4 2 4 5 1 5 4 1 3 6 6 5 6 5 4 10 11 9 8 12 17 14 9 8 8 11 15 15 15 17 19 21 23 23 23 26 26 24 24 23 22 20 18 17 16 14 13 14 15 16 16 15 15 14 14 14 15 15 16 16 16 17 19 22 22 22 23 24 24 25 26 27 28 28 29 31 33 34 33 31 30 31 34 36 35
5 6 3 3 4 1 5 6 6 2 2 1 4 3 0 6 14 14 10 7 7 8 7 7 11 13 14 14 14 14 14 17 21 22 22 25 28 27 25 25 23 21 19 17 16 16 14 14 14 15 15 14 14 14 13 13 13 14 16 16 15 15 17 19 21 21 21 23 24 24 24 25 27 27 27 28 29 32 34 35 33 30 29 32 35 35
6 6 3 3 4 1 3 5 4 1 2 3 4 4 9 13 18 19 13 7 6 10 13 15 16 16 16 17 19 19 18 19 22 22 24 27 28 27 26 24 22 20 18 17 17 16 14 14 14 14 14 13 13 13 12 13 14 16 16 15 15 16 17 17 19 20 20 22 24 25 24 25 26 26 26 26 28 31 34 36 35 32 29 29 33 35
7 6 4 3 4 2 2 4 3 2 2 2 3 7 11 10 12 15 12 8 4 9 15 17 15 16 20 23 24 23 24 26 26 24 25 27 26 26 25 23 22 20 19 18 17 16 16 15 15 15 14 13 12 13 13 13 14 15 14 13 15 17 17 16 18 19 18 20 24 25 24 24 25 25 26 26 28 31 33 36 36 34 31 30 32 35
6 6 5 4 2 3 4 2 1 0 1 1 2 2 3 3 3 6 6 4 2 6 13 17 16 16 21 24 25 26 29 28 21 17 22 25 25 24 23 22 21 20 19 18 17 16 17 15 14 14 14 13 13 12 13 13 13 14 14 14 16 17 17 18 20 19 17 19 23 25 25 25 25 26 26 27 30 31 32 34 35 34 32 32 33 35
7 4 6 5 2 3 5 3 1 1 2 4 5 3 2 8 9 7 6 4 5 8 15 18 16 18 22 24 26 28 27 19 9 8 18 24 23 23 22 20 20 19 19 18 16 16 17 15 14 13 12 13 13 11 11 12 12 13 14 15 16 16 17 20 21 19 17 19 22 24 25 26 26 27 27 28 30 32 32 32 33 32 32 33 33 34
9 5 4 7 4 3 4 3 3 2 2 5 6 4 7 14 13 8 5 2 6 14 20 19 18 21 24 26 28 27 19 10 4 9 20 24 22 22 22 21 20 19 18 17 16 16 16 15 13 12 11 11 12 11 12 12 11 12 14 15 15 16 17 18 19 18 18 18 21 23 25 26 27 28 27 26 27 30 31 31 31 31 30 31 32 33
6 6 4 5 5 5 4 2 2 1 3 4 6 7 11 11 7 5 1 4 10 21 25 24 23 24 26 28 27 18 9 8 12 18 25 26 23 23 23 21 21 19 18 17 16 16 16 13 12 12 12 12 13 14 13 12 12 14 14 15 16 16 16 15 15 16 16 16 19 22 23 24 26 27 27 25 25 27 29 30 30 31 29 29 30 31
3 4 3 4 5 5 5 2 1 1 3 3 7 11 12 7 4 2 3 8 19 27 28 29 28 28 29 30 23 11 7 15 25 29 30 27 25 24 22 20 20 20 18 17 15 15 15 14 13 14 14 14 14 14 13 11 13 15 15 15 17 17 16 14 15 16 16 15 18 22 22 22 24 26 26 25 24 25 28 30 31 31 29 28 28 29
1 2 2 2 3 4 3 2 2 1 3 2 8 12 12 6 0 2 4 17 32 33 29 30 30 30 31 27 18 14 19 26 31 32 30 27 27 26 22 20 21 21 19 17 15 15 16 16 15 15 15 14 14 14 13 14 15 15 14 14 16 15 14 13 14 15 15 15 18 21 19 18 21 24 25 25 26 26 28 30 32 31 30 30 29 28
2 2 2 2 2 3 3 3 3 2 4 5 7 8 5 2 5 9 16 24 32 33 32 32 31 31 30 24 19 25 33 34 32 29 28 27 27 26 23 21 22 21 20 18 16 16 16 16 15 15 14 14 14 14 14 15 15 14 13 12 12 13 13 13 12 12 14 15 18 20 18 15 16 21 25 26 26 27 28 30 32 31 31 31 31 30
1 1 2 1 1 2 3 3 3 1 3 6 6 5 4 6 15 25 28 26 27 30 32 32 31 31 28 26 30 36 37 35 32 29 28 28 27 25 23 22 21 21 20 19 18 16 16 16 15 16 15 14 13 12 12 12 13 14 14 12 11 13 14 13 13 12 14 15 16 17 18 16 14 17 23 25 25 26 27 29 32 32 32 33 33 33
2 2 6 3 0 2 4 3 2 6 11 10 10 14 17 18 22 28 31 29 29 30 30 31 31 30 28 32 37 38 36 35 34 31 29 28 26 25 24 22 21 20 20 19 17 16 15 15 15 16 15 13 13 12 12 13 13 14 14 12 11 13 14 14 14 13 13 14 15 16 17 17 14 16 22 24 24 25 26 27 31 32 33 33 34 34
1 5 8 6 4 5 7 6 7 14 18 18 19 22 24 24 23 25 28 29 29 28 28 30 31 32 34 38 39 36 35 36 35 31 30 30 29 27 24 20 18 19 21 20 17 17 17 16 16 15 14 14 12 12 13 13 13 13 13 11 10 13 15 14 13 13 13 13 15 16 17 16 15 16 20 22 22 23 24 26 29 31 32 33 33 33
3 4 5 4 4 5 4 3 8 14 17 21 23 24 24 25 25 25 26 27 27 28 29 31 32 35 37 39 38 37 36 36 34 33 31 30 28 26 22 20 20 21 21 19 17 17 17 16 16 15 14 14 12 10 11 12 12 11 11 10 10 11 13 13 13 13 13 12 13 14 15 16 17 18 18 19 21 22 23 26 28 29 31 31 31 32
4 6 7 4 3 4 4 6 14 20 20 21 23 24 25 26 25 25 26 27 28 30 31 32 35 36 36 36 37 38 37 34 34 35 31 28 27 26 24 24 24 22 20 18 19 19 17 16 16 14 13 13 12 11 11 12 12 11 9 10 9 9 10 11 12 13 13 13 12 12 13 15 17 19 18 18 20 22 23 25 27 28 28 28 29 31
8 8 6 5 5 6 7 11 17 19 16 16 21 23 25 27 28 28 28 29 30 32 33 33 34 35 36 36 36 37 36 34 34 33 29 27 28 29 27 26 25 22 20 20 20 19 17 16 16 15 14 13 12 11 11 12 12 11 9 9 10 9 8 8 9 10 12 13 13 12 13 13 14 16 18 18 19 20 22 24 26 26 26 26 28 30
8 5 4 7 7 4 4 9 13 11 8 13 20 24 25 28 30 29 28 29 30 33 34 34 32 32 33 35 36 36 36 35 32 29 28 29 30 28 26 26 24 21 20 21 20 19 18 17 15 14 14 12 12 12 12 12 12 10 8 8 9 9 8 9 9 7 9 12 13 13 13 14 14 13 14 17 19 19 20 22 24 24 24 25 28 29
7 10 8 6 5 6 10 15 16 12 11 17 24 26 25 27 28 28 28 29 31 33 34 34 33 32 32 33 34 35 35 33 30 28 29 30 28 26 26 27 24 20 21 23 22 20 18 17 15 14 13 11 11 11 12 12 11 10 8 8 9 7 7 11 13 10 7 8 11 13 13 13 15 14 12 13 15 17 18 19 21 21 21 23 26 27
Wind_Direction
206 211 210 203 188 183 203 219 230 233 235 236 201 186 207 216 248 234 171 176 180 174 200 168 147 103 72 56 51 79 98 104 101 101 102 104 105 107 106 104 102 96 94 100 109 114 112 112 112 104 104 115 117 120 129 138 140 133 132 127 112 112 122 131 148 156 174 191 194 199 215 229 248 267 281 288 283 267 263 269 267 258 260 264 268 272
203 214 216 190 180 194 206 218 234 243 242 249 245 215 219 208 234 237 168 174 182 155 182 160 120 90 80 73 62 74 78 75 87 95 96 100 102 103 103 100 98 96 100 105 108 114 115 115 117 112 111 116 115 118 125 126 125 126 124 117 112 112 106 97 128 158 169 186 192 201 220 236 261 275 283 286 281 270 261 258 254 256 265 274 279 279
206 217 203 184 188 210 221 215 225 244 244 249 261 258 256 228 232 240 169 171 181 154 167 133 100 88 87 86 72 72 74 71 81 89 93 99 100 100 100 98 99 99 101 105 105 110 114 114 116 116 119 120 117 121 126 125 125 127 123 114 112 111 98 104 160 196 202 202 199 211 224 236 258 267 276 285 285 273 264 264 267 271 277 279 280 279
205 206 187 191 200 212 228 220 217 239 244 242 244 239 261 247 235 227 165 169 180 164 135 114 96 90 87 90 84 81 86 83 82 86 89 93 97 100 100 98 99 97 96 100 101 106 111 116 117 115 118 122 123 124 123 121 119 118 120 118 120 126 120 127 140 151 216 210 201 203 209 252 277 276 279 288 295 286 275 276 279 283 286 283 282 281
198 181 185 199 206 210 224 224 214 224 238 242 235 228 248 253 241 182 158 166 169 128 112 107 85 49 78 93 98 95 95 90 86 88 86 87 92 95 96 97 97 95 95 94 94 98 106 114 113 108 113 122 125 124 116 112 114 114 118 123 128 142 139 133 135 114 136 176 181 173 142 305 291 313 308 304 309 308 305 299 293 295 295 291 289 287
201 183 188 204 211 211 219 224 217 210 223 244 236 232 240 254 260 168 153 158 152 129 125 120 93 356 75 101 109 113 103 95 90 91 91 90 90 89 91 94 96 96 96 94 91 91 95 104 107 104 107 112 113 117 110 105 118 132 134 143 150 157 161 156 167 150 148 160 158 145 119 91 317 333 326 316 312 310 312 311 305 301 296 292 289 288
209 190 187 201 208 209 216 224 223 206 202 236 234 232 239 250 272 286 165 163 155 168 158 137 121 140 215 125 127 123 108 105 99 95 96 94 91 92 95 97 97 96 96 95 91 87 87 92 98 98 96 98 100 107 124 128 143 153 153 166 173 169 173 173 183 193 184 174 165 163 159 166 226 276 293 295 293 295 303 305 304 303 302 299 293 291
207 205 188 194 205 209 213 217 221 209 196 228 238 233 239 245 263 285 224 181 167 155 159 145 123 126 207 178 148 130 116 112 108 101 100 99 98 100 101 101 100 99 98 98 93 87 85 83 85 85 81 85 88 99 158 166 160 168 168 179 195 186 183 187 191 206 209 193 182 181 187 195 209 233 252 266 274 279 288 294 298 298 302 304 300 299
194 216 194 185 201 210 208 211 213 213 207 220 246 243 238 237 248 271 252 180 150 142 163 160 127 116 187 169 143 132 126 127 126 121 118 113 111 107 105 105 102 101 100 99 98 93 87 81 77 70 65 65 358 231 192 169 164 189 194 195 214 210 201 197 194 205 217 211 200 197 205 212 215 229 243 257 268 272 278 279 283 287 293 299 300 303
192 218 209 184 197 210 203 206 207 218 216 201 242 258 254 242 236 250 256 151 113 145 183 178 151 124 150 166 149 143 145 152 145 131 131 127 123 117 110 107 104 102 100 97 97 93 87 84 79 72 63 47 10 359 59 104 129 153 149 194 233 227 217 212 210 211 217 219 218 215 219 230 236 246 254 261 265 270 276 272 273 285 297 303 303 306
201 210 218 199 193 198 200 204 208 219 203 170 229 256 270 261 231 130 251 72 89 190 209 189 171 137 118 190 175 167 156 153 146 133 138 134 128 124 117 112 108 104 102 97 95 91 87 83 82 87 83 69 54 41 47 57 62 63 49 32 22 17 25 224 221 220 225 232 239 243 253 269 274 279 282 279 274 277 290 294 290 294 301 305 306 308
212 198 214 213 195 188 193 204 205 218 202 172 215 225 253 279 307 65 344 68 115 243 241 199 175 117 105 210 197 153 126 136 142 140 143 139 130 125 119 113 109 107 107 104 100 97 94 90 85 86 81 74 64 51 56 62 59 59 52 41 38 39 42 43 42 27 321 274 280 291 296 298 297 301 297 290 287 285 294 313 314 301 303 306 306 311
225 199 197 212 210 191 188 197 196 213 208 193 208 169 173 270 208 199 254 116 189 236 214 182 147 86 85 260 158 130 125 131 137 137 139 139 132 125 119 114 111 110 109 105 103 100 96 92 86 81 80 75 62 52 57 66 65 60 59 59 50 41 42 45 42 35 31 29 31 29 16 358 336 314 297 284 281 276 278 294 303 300 308 315 319 325
231 232 201 205 223 198 190 184 183 205 200 199 208 153 151 176 181 211 200 152 219 230 188 160 111 83 201 345 45 114 123 127 128 130 135 135 130 124 118 114 111 108 106 104 103 98 89 85 81 81 88 82 67 54 48 58 67 61 60 66 59 50 50 46 36 26 25 27 36 43 34 21 13 1 348 323 302 286 271 273 279 286 300 310 319 329
199 234 203 195 207 188 186 179 170 178 176 197 199 150 166 179 167 196 169 151 215 223 174 134 93 86 153 64 60 98 112 120 122 126 128 126 124 120 114 110 108 104 103 102 100 95 87 78 70 75 86 85 75 62 52 55 61 59 56 52 51 60 58 47 35 25 25 32 41 47 41 30 20 12 11 5 351 339 315 284 275 283 296 304 310 318
203 231 196 184 188 178 181 186 168 163 174 202 179 158 206 205 141 157 178 150 150 156 87 59 68 64 81 86 88 98 109 117 119 123 124 120 118 116 110 106 107 106 104 102 99 93 85 74 67 72 83 85 79 69 62 61 58 58 60 48 48 65 65 54 46 36 33 40 47 48 45 37 23 16 17 15 9 6 359 344 325 317 316 315 314 312
200 235 196 175 184 188 183 192 185 168 171 181 192 199 210 199 136 121 184 129 99 105 96 24 112 99 90 94 107 113 115 120 123 125 124 119 114 111 108 107 108 108 105 100 96 91 86 82 76 77 84 84 77 68 65 63 54 55 64 55 54 65 64 55 45 31 25 27 33 36 33 29 24 23 24 17 13 13 14 12 2 352 344 334 328 322
173 228 214 176 164 173 172 191 262 247 218 173 191 211 197 209 181 116 114 141 114 124 152 159 144 143 156 153 143 140 133 135 136 130 125 120 116 113 111 112 111 109 106 98 94 96 97 97 90 84 85 80 75 73 72 68 59 61 73 67 61 60 56 51 39 24 14 12 19 25 26 26 25 25 25 19 14 14 17 17 12 8 2 351 342 335
166 157 220 175 155 144 155 180 261 258 250 216 175 179 158 192 216 146 130 168 158 150 120 126 151 167 179 161 159 157 149 148 143 134 132 127 124 122 117 115 111 108 107 102 103 108 107 104 96 89 86 82 83 84 80 78 69 71 84 77 66 62 59 50 36 25 19 14 19 26 31 33 28 24 24 21 16 16 18 18 14 13 10 3 354 345
164 136 192 174 158 150 154 180 219 241 251 241 189 184 176 172 184 171 171 168 159 155 126 135 169 209 215 165 166 166 158 154 147 140 137 130 127 124 119 117 115 112 110 111 116 116 109 105 100 97 94 85 82 74 64 75 68 62 71 71 64 65 62 46 29 26 29 26 27 31 34 33 28 28 28 24 21 21 20 17 15 14 12 9 5 357
137 121 161 193 168 167 178 195 204 207 220 235 219 192 190 178 161 173 201 178 150 145 133 140 179 230 264 166 165 162 158 154 145 136 129 128 126 123 121 122 120 117 117 118 117 111 107 107 103 103 101 86 76 63 58 70 68 59 59 62 62 63 56 41 33 36 38 33 29 30 33 32 29 30 30 24 22 23 20 15 15 14 12 12 10 5
140 132 177 210 182 181 183 182 196 208 200 207 222 200 185 166 148 157 239 230 150 140 146 147 163 203 262 345 181 160 151 141 133 126 122 122 120 119 123 125 122 122 121 117 110 105 106 107 99 95 99 93 82 68 63 68 69 63 57 55 57 59 53 43 38 38 37 33 29 29 32 32 31 30 27 23 22 23 18 14 16 14 11 12 12 9
131 124 168 226 201 181 176 177 188 212 228 222 232 214 173 158 149 144 197 221 178 131 117 113 122 151 269 307 276 144 128 123 123 121 117 116 117 121 126 126 125 126 121 111 105 105 109 109 99 89 89 88 76 65 63 62 64 66 60 53 53 57 56 48 38 31 30 31 31 31 32 32 30 27 25 23 22 20 16 15 16 15 13 15 15 13
137 116 156 205 242 177 183 188 183 201 230 238 239 217 171 170 170 153 160 189 185 154 117 81 89 154 293 299 125 121 117 117 120 119 117 117 121 127 131 128 127 126 121 114 110 109 112 111 103 95 92 90 80 72 68 61 61 66 62 54 54 58 57 47 35 28 27 31 33 32 35 34 29 27 26 23 20 18 16 16 17 17 16 18 18 17
178 145 129 148 180 170 181 197 187 199 216 222 248 236 200 171 162 167 185 206 267 182 133 118 126 194 272 116 118 120 118 117 120 122 123 125 129 132 133 131 132 128 121 116 113 109 107 103 95 94 100 98 88 78 69 62 63 64 58 50 50 56 56 46 34 28 27 32 34 34 37 35 29 30 30 24 20 19 18 17 18 19 19 20 21 23
171 149 112 137 161 173 182 203 192 184 207 231 256 251 228 187 164 158 161 184 237 159 115 122 143 152 157 121 117 121 121 119 123 126 126 128 131 134 136 137 138 130 116 109 107 104 102 96 89 88 92 90 82 73 66 64 64 63 56 46 43 50 53 39 27 28 31 34 37 37 38 35 30 32 32 27 23 21 20 19 19 21 22 20 21 24
129 133 134 135 156 181 185 214 183 146 174 224 240 249 238 210 180 140 120 180 196 121 74 137 145 141 151 139 127 127 125 124 129 129 128 130 133 138 140 137 132 125 114 104 102 100 96 93 89 88 87 82 79 75 70 66 64 61 55 45 38 37 37 31 27 34 39 39 39 39 38 36 34 33 31 29 27 24 23 21 20 23 25 21 19 20
61 123 162 146 135 168 134 9 358 157 184 206 228 255 249 220 198 160 140 164 157 125 35 166 146 141 154 152 140 137 135 131 135 134 134 137 141 144 142 136 129 124 117 108 103 100 95 91 90 92 90 85 82 80 75 68 64 63 56 46 37 33 35 38 40 42 41 39 38 37 36 37 37 36 33 29 26 23 23 24 24 26 27 21 16 16
91 141 181 148 90 30 8 4 14 26 194 194 206 229 242 223 196 171 156 159 154 151 166 165 153 144 149 150 142 139 139 135 136 137 139 143 147 148 142 136 130 124 117 112 109 104 97 93 90 91 90 84 79 78 74 67 62 60 55 49 41 37 40 44 44 42 39 38 38 35 34 38 38 37 35 31 27 24 23 24 25 26 27 23 17 14
95 96 171 112 84 13 347 360 36 46 44 76 184 229 135 97 102 100 88 90 93 102 132 143 138 127 133 138 133 133 134 133 133 135 141 149 151 146 139 132 128 123 118 115 112 109 104 99 95 93 90 83 78 75 73 70 65 60 56 52 44 40 44 47 46 43 40 39 38 34 35 40 40 37 34 30 28 27 25 24 23 24 26 24 20 17
99 359 315 93 72 2 6 26 55 75 70 58 41 27 59 82 85 90 97 90 84 88 108 119 115 105 118 124 124 129 131 132 134 138 148 156 150 139 134 131 128 125 123 120 116 113 111 105 99 94 91 86 80 76 74 73 70 66 63 58 50 45 45 48 48 45 41 39 38 38 39 41 41 37 32 28 26 26 27 25 25 25 25 23 20 19
111 59 340 76 81 2 12 46 86 91 78 65 42 19 30 70 84 88 84 86 110 119 117 116 123 137 137 129 127 131 135 136 139 145 154 154 143 137 135 132 129 127 125 122 119 115 111 105 101 96 91 87 83 78 75 73 71 69 68 65 60 54 49 47 45 42 39 37 37 40 43 43 41 39 35 29 25 25 27 28 28 27 24 21 19 20
102 107 61 80 107 326 341 7 27 67 66 55 14 344 348 70 90 78 51 60 115 130 134 148 157 145 139 137 134 137 142 142 145 152 156 148 139 137 136 131 128 127 124 123 120 115 109 105 102 96 89 84 82 78 74 72 71 69 68 67 64 57 50 46 43 41 40 37 34 38 44 43 42 42 39 32 26 23 26 30 31 29 23 18 17 21
75 104 95 65 109 255 321 5 19 38 107 310 295 293 59 103 97 84 64 62 92 107 109 124 132 133 138 140 139 144 147 144 147 154 152 143 139 137 134 131 130 128 125 123 121 117 112 107 99 92 88 85 82 81 77 73 72 72 72 68 60 54 52 51 48 44 40 36 33 35 42 44 43 43 42 36 28 24 26 29 31 31 26 17 16 23
92 96 79 49 98 99 342 41 61 211 233 297 324 68 93 99 95 87 71 48 72 102 106 112 125 135 137 136 137 138 133 129 133 138 139 139 139 136 133 132 134 133 128 124 121 119 117 110 99 94 94 91 86 84 79 74 72 73 74 69 59 54 55 54 51 46 40 36 33 34 39 44 42 41 40 36 29 27 29 30 29 31 30 22 20 27
116 111 86 66 95 90 43 79 126 222 262 350 37 86 102 106 99 89 70 35 51 113 120 123 130 134 133 134 135 131 121 114 110 115 127 135 138 137 135 134 134 133 130 125 123 121 115 107 102 101 98 94 92 88 80 75 75 75 75 72 66 61 58 52 49 47 41 36 33 32 35 40 41 40 39 33 29 28 29 29 27 28 29 27 26 31
102 120 113 80 61 100 104 83 60 357 223 167 127 126 136 135 125 110 95 83 112 129 132 133 133 135 135 135 133 127 119 110 98 100 120 132 136 136 135 134 133 133 131 126 124 122 115 107 107 107 101 99 99 93 87 84 81 78 76 72 68 64 55 45 45 49 46 37 32 30 32 35 37 39 36 31 28 27 27 27 26 26 28 28 28 31
51 86 131 116 57 84 104 97 113 163 227 199 188 216 148 122 129 122 102 116 149 148 146 141 137 140 141 138 135 132 124 115 99 111 127 132 137 137 134 133 133 132 130 127 124 122 114 108 110 113 109 105 101 99 101 96 87 82 77 71 66 62 54 46 47 51 48 37 30 29 32 35 36 37 35 31 29 29 28 26 26 26 27 28 28 29
35 30 93 108 102 120 116 128 164 188 243 199 184 178 137 137 140 122 87 129 161 151 148 143 139 145 146 143 143 142 135 130 142 145 139 138 141 140 137 136 134 131 130 131 130 123 115 113 117 119 116 108 98 96 98 91 82 81 79 72 66 61 57 53 51 51 45 34 28 29 34 36 36 36 37 33 30 30 30 28 27 28 28 27 26 27
41 28 49 102 130 146 130 121 156 224 251 192 161 151 150 149 137 109 119 211 164 152 151 148 147 150 149 147 149 150 152 155 153 150 147 144 144 144 142 140 139 137 134 130 124 119 118 120 118 109 105 104 97 91 90 85 79 77 76 75 71 63 56 51 51 50 44 36 33 32 33 33 33 35 39 37 31 30 30 29 28 29 29 28 26 25
70 71 95 125 134 134 122 111 119 271 254 185 147 149 148 125 87 111 220 184 153 150 153 152 151 151 150 150 151 147 141 147 147 146 146 146 147 146 144 143 143 140 134 125 119 120 120 115 106 98 95 97 98 94 89 86 80 73 70 75 76 67 55 50 52 51 46 44 40 33 29 29 31 35 39 38 33 30 30 29 28 29 30 29 27 25
117 122 120 112 124 126 113 102 91 324 276 192 136 136 129 110 147 226 164 148 147 149 153 153 151 151 152 153 149 137 135 141 144 144 146 149 148 145 144 147 146 142 135 129 128 129 123 113 108 105 98 93 95 94 88 83 79 74 71 74 74 65 56 55 57 55 54 52 43 33 27 24 28 33 37 36 32 29 29 29 29 29 30 30 29 26
157 129 98 95 127 115 83 96 124 197 222 173 131 123 118 149 182 144 125 134 145 148 150 151 150 152 153 152 145 140 140 142 145 146 147 147 145 143 146 149 146 141 136 134 136 133 127 121 118 113 105 98 93 90 86 82 80 78 72 70 71 69 64 57 51 56 65 60 44 34 29 24 26 31 32 30 27 27 29 29 29 29 30 29 29 28
229 158 147 184 232 115 120 176 221 218 165 157 143 128 125 143 148 140 133 136 146 150 150 150 151 156 157 149 142 141 142 143 146 147 146 145 145 148 153 154 149 143 138 136 138 138 133 130 125 117 111 106 99 94 90 86 84 78 67 64 75 79 70 54 45 58 70 59 44 38 33 28 28 29 27 26 25 25 28 30 28 28 28 28 28 28
306 133 126 122 120 107 116 174 177 86 89 106 121 121 121 129 141 143 140 141 146 151 152 151 151 154 155 148 142 142 143 145 147 148 147 147 149 150 152 151 149 148 145 138 134 133 131 126 122 116 110 104 99 94 89 84 81 75 66 64 77 81 72 57 48 59 67 56 48 48 38 29 30 31 26 24 23 24 26 28 27 25 25 24 24 25
143 115 101 102 128 98 67 69 96 91 89 99 112 118 123 130 137 140 139 140 145 151 154 152 151 152 151 148 144 143 145 147 147 149 150 148 146 143 139 139 142 145 144 139 135 134 131 124 121 117 110 106 97 84 80 80 78 74 67 65 76 82 76 63 51 56 64 60 55 51 41 33 33 31 25 23 22 24 25 26 25 24 22 21 22 23
209 149 95 97 137 118 64 67 101 100 102 108 112 118 126 130 134 139 140 141 146 150 151 150 150 149 149 147 145 144 147 148 148 151 154 154 152 147 139 138 142 141 138 137 136 135 130 124 121 117 113 116 112 95 89 90 85 77 68 62 73 87 82 69 58 54 54 54 54 51 43 38 35 27 22 22 23 23 24 24 23 21 20 20 21 22
174 133 107 94 100 96 103 117 108 106 112 117 118 123 127 131 135 138 139 141 143 144 145 147 149 149 148 148 146 145 147 150 151 152 155 156 156 152 145 142 142 140 138 139 137 132 127 123 121 115 110 115 117 110 104 100 91 83 69 56 64 82 86 78 69 59 49 46 46 41 36 36 34 26 21 24 26 24 23 22 21 19 19 20 21 20
113 113 109 106 102 96 107 120 114 109 113 120 122 124 127 132 135 134 135 139 140 140 143 147 150 150 149 149 148 146 147 150 151 151 153 152 149 147 146 145 142 139 141 143 140 135 130 125 121 117 113 113 114 111 106 100 92 84 70 59 60 63 68 75 75 68 60 52 42 33 27 28 31 28 25 26 26 23 21 21 20 19 20 21 19 17
96 107 109 115 127 137 148 143 132 121 121 130 130 129 130 133 135 135 137 140 142 144 146 145 147 149 149 149 149 148 148 150 152 151 150 149 148 148 149 147 143 140 143 146 142 135 131 126 121 118 117 117 117 114 108 100 92 82 71 69 67 54 44 48 52 62 71 60 46 39 31 19 14 21 27 28 26 23 22 22 20 18 21 22 18 15
123 155 152 134 149 164 153 144 134 121 121 128 131 135 139 140 141 142 144 146 148 150 149 146 145 147 148 150 150 147 146 148 152 150 146 145 148 152 152 150 146 142 145 148 144 136 131 128 123 120 119 118 119 121 121 115 103 93 83 77 73 62 39 33 36 46 70 64 46 42 35 16 8 12 23 29 26 22 20 19 18 17 20 19 15 13